Reflectivity
3 4 -11 -5 3 7 -20 17 -5 -20 -20 -20 -20 -20 -20 -20 -20 -20 -20 -20 -20 -20 -20 -20 -20 -20 -20 -20 -20 -20 -20 -20 -20 -20 -20 -20 -20 -20 -20 -20 -20 -20 -20 -20
5 12 18 8 2 18 5 3 4 -11 -6 -17 -20 -20 -20 -20 -20 -20 -20 -20 -20 -20 -20 -20 -20 -20 -20 -20 -20 -20 -20 -20 -20 -20 -20 -20 -20 -20 -20 -20 -20 -20 -9 -20
12 3 11 -5 2 2 -17 1 7 -1 -19 -7 -20 -20 -20 -20 -20 -20 -20 -20 -20 -20 -20 -20 -20 -20 -20 -20 -20 -20 -20 -20 -20 -20 -20 -20 -20 -20 -20 -20 -20 -20 -20 -20
11 13 11 5 -4 -4 -19 -20 6 20 15 17 26 15 15 -0 -20 -20 -20 -20 -20 -20 -20 -20 -20 -20 -20 -20 -20 -20 -20 -20 -20 -20 -20 -20 -20 -20 -20 -20 -20 -20 -20 -20
-5 15 15 -20 6 5 -20 13 23 12 -19 -20 -20 -2 35 36 25 -20 -20 -2 -20 -20 -20 -20 -20 -20 -20 -20 -20 -20 -20 -20 -20 -20 -20 -20 -15 -20 -20 -20 -16 -20 -20 -20
-11 -5 -5 15 8 17 16 15 4 19 -3 4 8 -15 -14 -14 3 25 -16 -20 -19 -2 -20 -20 -20 -20 -20 -20 -20 -20 -20 -20 -20 -20 -20 -20 -20 -14 3 -6 -20 -20 -20 -11
3 -20 3 7 -12 23 19 15 25 18 -1 2 5 7 -20 -20 -20 -16 8 24 17 -8 -20 -20 -20 -20 -20 -20 -20 -20 -20 -20 -20 -20 -20 -20 -20 -16 -3 -5 -15 -19 -17 -16
-20 -19 -8 16 18 13 23 21 18 18 5 -17 -20 -20 -20 -19 -20 -9 3 13 -10 8 24 10 -11 -20 -20 -20 -20 -20 -20 -20 -20 -20 -20 -20 -20 -20 6 9 2 -5 -20 -20
-20 -20 -20 -9 -8 2 24 -7 18 27 18 -20 -20 -20 -19 12 2 -20 -17 -20 -18 20 27 19 2 -18 -20 -20 -20 -20 -20 -20 -20 -20 -20 -20 -20 -20 3 3 -9 7 -7 -20
-2 5 -6 -8 -13 -10 27 19 5 25 13 -19 -20 -8 -8 0 12 15 -14 21 22 33 29 25 11 -15 -20 -20 -20 -20 -20 -20 -20 -20 -20 -20 -20 -20 -6 1 -10 -1 -5 1
18 10 -7 -3 -20 3 24 25 22 9 10 17 -20 -20 0 16 13 25 7 3 11 35 22 20 14 -17 -20 -20 -20 -20 -20 -20 -20 -20 -14 -20 -20 -15 -3 -2 -2 8 4 -11
13 -2 -15 -20 14 18 23 19 27 16 7 0 -20 -20 -20 17 32 28 17 23 17 31 5 8 6 13 -20 -20 -20 -20 -1 -20 -20 -20 -20 -20 -7 11 10 -8 -19 -1 3 1
13 14 11 10 20 -20 23 21 14 27 22 10 -20 -19 -19 6 18 29 28 6 35 42 14 -19 25 18 8 -3 -18 14 12 11 14 8 10 -18 -1 -1 12 -3 -20 -6 4 11
-20 -4 9 -20 3 9 22 18 20 25 27 12 -15 1 -10 -7 7 10 32 32 33 33 35 16 26 16 -1 -20 -19 -2 11 12 11 20 23 3 -6 15 0 -14 -3 -6 -15 -7
-7 11 14 19 -16 11 23 -20 -15 4 -7 -9 -20 -20 -20 -20 -14 13 27 32 25 25 30 29 25 18 -18 -15 2 -7 -6 2 2 -6 6 16 24 25 24 5 4 8 11 9
13 15 17 23 17 25 10 -20 -20 -20 -1 30 -10 -20 -20 -20 -7 26 24 30 33 27 20 23 26 21 19 7 -6 8 3 -20 -10 19 10 21 29 33 35 32 34 31 29 21
17 15 19 6 3 22 -2 -20 -16 27 30 9 -8 -20 -20 -20 -13 21 33 25 29 28 23 10 23 20 21 19 19 16 31 32 27 23 21 29 31 28 21 15 14 17 17 19
-13 -12 -11 -8 -14 -17 -20 17 21 19 -19 -8 -20 -20 -20 -17 -11 5 23 26 25 22 18 18 15 29 22 13 14 18 23 26 14 22 25 24 19 8 -1 -5 2 3 6 5
-20 -20 -20 -20 -19 -19 -20 -20 -20 -20 -20 6 13 -11 5 -20 -11 -6 2 7 20 25 17 23 15 12 11 21 17 14 19 16 14 8 -9 -3 -10 -19 -20 -20 -20 -20 -20 -20
-20 -20 -20 13 -20 -20 -20 -20 -20 -20 26 -6 -6 -15 4 -10 -2 -20 -20 -20 1 2 14 25 13 17 17 18 20 19 18 18 18 11 12 15 6 -20 -20 -20 -20 -20 -20 -20
-20 -20 -20 -20 -20 -20 -20 -20 -20 -8 14 -20 -20 -20 -20 -19 13 8 -15 -20 -20 -4 18 19 11 12 17 19 17 18 18 17 13 9 11 6 -10 -20 -20 -20 -20 -20 -20 -20
-3 12 -2 -20 -20 -20 -20 -20 -20 -20 -20 -20 -20 -20 -20 -20 -14 11 19 -3 -20 13 13 13 7 17 18 17 16 14 14 14 11 -2 -20 -20 -20 -20 -20 -20 -20 -20 -20 -20
-20 -20 -20 -20 -20 -20 -20 -20 -20 -20 -20 -19 -13 -20 -20 -20 -18 6 21 17 18 13 -1 -2 15 16 11 11 12 7 7 6 1 -10 -20 -20 -20 -20 -20 -20 -20 -20 -20 -20
-20 -20 -20 -20 -20 -18 -6 1 0 -20 -4 -20 -20 -20 -20 -20 -14 -18 -8 -20 -20 -20 -17 11 15 15 11 9 9 10 7 0 -6 -14 -20 -20 -20 -20 -20 -20 -20 -20 -20 -20
-20 -20 -20 -20 -18 -16 -14 -13 -17 5 -20 -16 -20 -20 -19 -20 -20 -20 -20 -20 -20 4 11 12 12 8 3 -4 -3 -4 -16 -20 -20 -20 -20 -20 -20 -20 -20 -20 -20 -20 -20 -20
-20 -20 -20 -20 -20 -20 -20 -20 -14 -5 -20 -20 -20 -20 -20 -20 -20 -20 -12 -20 -7 9 10 9 -2 -20 -20 -20 -20 -20 -20 -20 -20 -20 -20 -20 -20 -20 -20 -20 -20 -20 -20 -20
-20 -20 -20 -20 -20 -20 -20 -20 -12 -20 -20 -20 -20 -20 -19 -20 -20 -20 -4 9 10 -0 -13 -20 -20 -20 -20 -20 -20 -20 -20 -20 -20 -20 -20 -20 -20 -20 -20 -20 -20 -20 -20 -20
Wind_Speed
22 23 25 25 26 29 13 3 5 3 3 2 4 6 5 7 7 4 7 4 7 8 10 9 9 12 11 9 9 9 7 5 5 12 6 11 7 9 7 6 6 5 4 10
22 23 23 24 25 23 6 4 4 4 3 7 7 9 14 9 9 6 6 7 8 8 7 5 9 9 6 12 10 11 8 4 1 7 4 1 6 8 7 2 2 8 2 10
19 19 22 24 23 23 5 4 4 1 3 6 7 9 20 20 7 12 6 8 8 5 6 7 6 7 6 8 8 8 8 5 8 9 6 6 6 6 12 10 5 6 18 21
18 19 19 20 23 22 4 3 5 2 5 4 12 17 16 16 11 7 9 15 19 9 9 7 13 6 3 2 9 7 7 7 5 10 9 4 7 7 10 14 22 10 26 18
19 20 18 19 19 19 2 3 5 5 10 14 17 18 14 20 19 13 20 21 18 15 20 19 11 9 7 8 5 9 5 5 4 7 13 11 12 14 16 20 21 21 25 28
20 20 21 19 16 12 2 2 3 4 7 10 12 11 22 25 21 24 26 25 17 20 21 20 8 3 4 6 12 9 7 5 4 6 7 7 5 21 17 19 18 20 19 31
21 20 21 19 19 11 2 2 3 4 10 9 13 20 22 26 28 28 22 26 20 23 7 3 2 3 6 7 8 9 7 6 4 4 3 10 8 8 13 17 19 17 20 23
23 23 20 21 20 20 3 3 3 4 7 5 18 17 17 24 22 25 24 27 24 6 7 4 4 2 5 4 8 11 8 7 4 6 9 12 14 6 6 8 10 7 19 22
22 22 23 22 23 22 8 4 4 2 4 7 9 20 21 15 16 20 25 22 5 6 3 4 9 8 6 6 3 3 5 4 9 3 5 8 2 8 5 5 6 6 5 6
25 24 21 22 21 21 11 4 6 4 5 10 8 12 15 11 10 9 16 14 8 7 7 10 7 9 9 9 9 6 4 4 15 14 13 7 4 2 2 4 1 4 5 7
25 25 24 24 24 24 12 7 8 5 6 10 11 6 13 12 11 12 13 11 10 8 9 7 6 6 10 7 12 10 12 10 8 8 9 17 1 4 3 0 4 4 5 6
27 27 26 27 26 25 18 6 3 7 5 11 13 20 22 22 19 9 5 10 14 7 6 6 4 3 3 8 12 3 10 9 7 9 5 4 5 6 3 2 3 3 5 5
27 28 28 27 25 23 18 8 5 3 5 9 5 9 12 13 14 10 5 4 5 10 6 4 3 4 5 5 6 6 6 4 3 3 4 5 7 5 4 4 5 6 7 7
30 30 28 25 25 24 19 5 4 2 4 5 7 6 8 8 16 13 12 10 7 6 5 3 3 3 3 2 2 4 4 4 5 2 6 6 4 8 6 7 9 10 7 8
33 32 28 25 24 25 12 5 5 4 3 4 9 15 9 0 5 12 13 7 6 3 3 2 2 2 3 2 2 2 1 4 6 4 5 6 6 4 7 9 10 10 10 11
33 30 24 23 21 20 2 4 1 3 2 5 5 5 6 5 5 12 10 6 3 2 3 2 2 3 0 3 3 6 6 6 7 4 2 9 10 7 6 4 5 8 9 5
31 25 20 19 16 2 2 4 1 6 4 3 6 6 5 4 4 5 2 4 2 1 1 1 2 2 3 4 5 10 7 7 8 7 7 7 4 4 4 4 5 8 10 9
29 22 15 15 14 8 3 2 3 3 1 2 3 7 6 4 3 4 3 1 1 1 1 0 2 4 5 5 13 9 9 8 12 13 13 11 10 11 11 8 8 10 9 8
24 21 13 3 2 3 3 12 12 2 2 2 1 5 7 8 4 4 2 2 2 1 1 3 7 7 9 12 12 13 10 7 7 12 14 13 14 12 11 11 11 11 10 10
22 6 4 3 3 13 8 4 4 4 1 0 1 3 6 5 4 4 4 2 2 3 1 6 6 5 6 15 13 13 15 15 8 11 11 9 10 10 10 12 10 10 9 9
5 5 3 4 11 4 4 3 4 3 4 4 3 3 9 4 4 3 1 3 3 3 3 6 6 5 12 14 14 13 13 15 15 15 13 13 13 12 12 13 12 11 11 9
8 8 6 4 5 4 7 3 5 5 2 5 5 9 5 5 3 4 0 2 3 5 4 5 4 5 11 13 15 15 14 14 15 15 14 14 15 11 11 10 9 9 8 9
4 4 5 4 5 9 6 7 6 5 4 4 9 9 3 4 3 3 4 5 6 3 6 5 4 6 9 11 11 12 12 13 14 14 13 12 11 11 10 9 9 8 8 8
3 4 8 4 4 4 2 3 4 4 3 10 9 4 3 3 3 3 6 3 5 5 4 4 4 7 8 8 8 10 12 12 12 12 10 10 10 8 7 6 5 5 7 6
4 5 4 3 3 3 3 4 4 4 7 6 4 4 2 3 4 4 4 7 6 6 4 3 4 5 4 6 8 8 8 9 8 8 8 9 9 9 8 7 6 6 6 6
5 6 4 5 3 4 4 4 5 6 8 5 1 3 5 5 4 7 8 5 6 3 2 3 4 4 5 6 7 7 6 6 6 6 6 7 8 7 6 6 6 7 7 7
5 3 2 2 2 3 5 5 6 9 5 4 4 7 4 3 6 5 5 4 3 4 3 2 4 5 6 6 6 7 6 7 7 6 7 6 5 5 5 6 6 6 5 5
Wind_Direction
2 4 358 356 356 358 3 299 287 244 90 83 226 231 235 242 257 209 246 216 220 206 209 206 211 212 211 163 146 172 190 157 207 216 231 188 174 195 174 149 242 241 189 267
357 355 354 354 355 360 326 274 249 223 110 250 245 278 278 264 257 224 214 239 205 199 218 236 199 211 226 161 157 171 177 211 343 329 349 215 197 205 212 212 90 222 250 259
354 354 353 353 350 352 349 289 287 200 204 233 237 255 265 268 242 264 220 235 217 191 229 230 251 229 210 178 172 157 150 192 193 194 194 142 194 209 206 202 209 228 232 261
346 346 348 346 351 348 354 276 272 287 286 274 261 254 270 271 264 242 241 255 236 208 231 220 230 214 161 234 169 159 160 219 214 246 250 204 205 215 203 204 234 216 259 223
343 338 341 340 343 351 349 300 338 355 299 295 297 299 278 268 272 247 259 258 262 226 235 232 238 201 184 192 182 156 177 236 223 259 252 240 248 254 239 224 230 234 253 266
342 342 335 333 339 355 303 340 278 273 281 287 282 280 283 285 298 263 256 253 250 243 236 236 239 263 182 171 160 175 166 174 184 242 249 252 229 237 229 241 237 225 236 245
339 340 337 330 327 329 213 277 262 263 286 285 283 296 292 288 285 273 269 283 247 248 188 178 178 194 211 192 187 163 171 174 177 239 148 246 236 209 220 226 247 233 247 257
334 333 331 329 328 322 241 230 243 260 280 277 293 293 298 304 292 279 266 250 264 205 169 152 180 314 359 257 198 199 185 171 221 231 217 282 302 284 180 171 264 232 237 251
327 325 326 323 323 321 309 269 201 218 271 244 278 296 289 294 289 296 263 261 246 179 206 169 181 192 176 222 254 40 164 192 207 182 235 253 284 261 140 119 269 325 285 206
321 315 313 308 310 313 309 276 189 228 230 265 247 285 291 293 266 282 287 285 219 194 203 208 190 223 184 208 177 175 164 193 217 223 242 268 255 186 147 165 255 351 25 46
313 309 314 310 310 312 311 282 187 206 262 271 249 255 287 277 278 281 307 299 205 195 199 195 168 193 208 210 216 178 186 176 204 216 238 251 356 142 231 202 17 84 57 58
315 313 307 301 304 300 303 287 237 209 223 267 281 271 271 263 274 268 242 284 279 226 158 185 144 184 163 204 238 169 216 194 179 181 209 89 28 85 278 123 95 55 79 62
311 309 308 306 304 302 303 287 253 215 259 273 250 260 259 221 217 226 269 262 334 298 303 123 119 186 144 187 225 124 13 359 96 143 23 91 74 39 21 50 72 55 56 62
318 313 312 310 307 305 304 267 249 207 267 265 278 265 257 226 222 227 245 282 260 257 299 100 139 137 179 191 154 139 151 130 156 141 128 88 53 48 356 39 45 40 38 48
317 308 302 299 302 308 300 256 230 188 190 278 291 299 266 326 251 252 244 256 294 300 329 19 99 104 109 63 68 124 319 179 180 194 146 179 157 83 29 47 31 22 26 23
316 310 301 297 303 310 38 320 9 198 165 271 307 290 290 278 293 299 265 218 252 279 319 352 54 19 96 157 115 14 5 41 25 119 38 87 110 74 49 63 33 33 42 8
325 314 301 302 306 290 167 223 176 309 256 276 294 300 287 316 339 307 325 182 239 273 320 342 30 37 35 35 44 358 19 41 56 55 116 84 82 81 78 101 82 73 57 46
335 337 323 317 313 322 312 302 310 8 178 243 294 279 327 0 329 315 297 299 163 235 314 326 91 39 38 50 342 357 0 38 48 53 56 71 79 66 58 53 68 67 55 58
332 330 327 7 18 348 275 303 313 171 181 256 270 333 315 337 308 277 318 330 323 15 327 45 58 19 46 330 359 9 4 22 72 69 67 69 67 64 57 57 53 61 53 53
340 357 14 346 297 308 328 15 23 14 4 359 278 351 306 336 303 300 352 352 329 347 27 89 68 70 360 5 7 18 16 30 44 71 61 66 67 61 58 56 51 48 51 52
3 352 312 278 311 15 28 1 57 321 34 353 316 340 321 291 288 299 325 317 323 357 51 65 56 21 9 0 13 15 26 40 46 57 58 51 51 50 46 42 41 37 33 33
292 284 294 319 15 18 55 337 351 34 341 324 338 322 294 289 274 278 294 311 24 44 34 59 62 10 6 7 11 13 21 33 43 42 47 49 46 37 42 39 34 33 30 26
10 28 24 28 329 29 43 352 326 331 327 310 326 320 285 303 287 290 327 7 33 52 43 62 38 2 17 11 4 14 24 33 37 36 37 41 48 46 42 37 25 20 22 15
64 47 14 56 356 7 339 287 293 275 296 318 311 290 294 302 317 345 3 31 41 62 61 58 14 10 16 7 6 18 15 23 28 26 23 27 27 27 30 33 24 21 15 355
52 54 23 8 317 264 263 276 296 320 298 308 301 293 280 322 21 15 11 35 53 42 41 46 22 357 327 1 14 15 13 11 16 7 9 9 10 13 8 12 7 9 359 353
61 40 22 323 28 312 334 328 324 335 314 306 308 341 30 17 32 23 15 52 38 36 25 9 324 356 1 7 7 6 360 357 352 355 353 357 7 1 343 354 2 356 349 349
45 347 31 321 270 295 328 312 330 324 338 8 36 39 349 354 39 35 18 35 23 1 353 349 6 13 0 355 357 356 353 353 345 339 345 338 340 340 350 350 337 341 335 328